User: anonymous   Login
Location: Austin
(30.3000°N, 97.7500°W)
Time: 01:37:44
(UTC-05:00)
Language:

CSL-04 Rocket - Orbit

View from above orbital plane
View from above orbital plane
View from above satellite
View from above satellite

Ground track
Ground track

The orbit data is extracted from the following two-line orbital elements,

1 25732U 99025C   23147.13511134  .00000064  00000-0  52855-4 0  9999
2 25732  98.8048 191.5709 0037738  26.3101  36.1292 14.17822060244094
Epoch (UTC): 27 May 2023 03:14:33
Eccentricity: 0.0037738
inclination: 98.8048°
perigee height: 805 km
apogee height: 860 km
right ascension of ascending node: 191.5709°
argument of perigee: 26.3101°
revolutions per day: 14.17822060
mean anomaly at epoch: 36.1292°
orbit number at epoch: 24409

The dashed part of the orbit path shows where the satellite is in the earth's shadow,  

DLR